TimeEDT,TemperatureF,Dew PointF,Humidity,Sea Level PressureIn,VisibilityMPH,Wind Direction,Wind SpeedMPH,Gust SpeedMPH,PrecipitationIn,Events,Conditions,WindDirDegrees,DateUTC
12:53 AM,55.9,39.0,53,30.17,10.0,NNW,6.9,-,N/A,,Clear,340,2013-05-25 04:53:00
1:53 AM,53.1,39.0,59,30.18,10.0,North,6.9,-,N/A,,Clear,350,2013-05-25 05:53:00
2:53 AM,54.0,36.0,51,30.17,10.0,North,8.1,-,N/A,,Clear,350,2013-05-25 06:53:00
3:53 AM,52.0,37.0,57,30.19,10.0,NNW,5.8,-,N/A,,Clear,340,2013-05-25 07:53:00
4:53 AM,51.1,37.0,59,30.19,10.0,NNW,4.6,-,N/A,,Clear,340,2013-05-25 08:53:00
5:53 AM,51.1,37.9,61,30.20,10.0,NNW,3.5,-,N/A,,Clear,330,2013-05-25 09:53:00
6:53 AM,48.0,42.1,80,30.22,10.0,Calm,Calm,-,N/A,,Clear,0,2013-05-25 10:53:00
7:53 AM,55.0,39.9,57,30.25,10.0,North,4.6,-,N/A,,Clear,10,2013-05-25 11:53:00
8:53 AM,59.0,37.9,46,30.27,10.0,NNW,6.9,-,N/A,,Clear,340,2013-05-25 12:53:00
9:53 AM,60.1,35.1,39,30.28,10.0,NNW,4.6,-,N/A,,Clear,330,2013-05-25 13:53:00
10:53 AM,63.0,36.0,37,30.27,10.0,NW,8.1,-,N/A,,Clear,310,2013-05-25 14:53:00
11:53 AM,64.9,36.0,34,30.26,10.0,WNW,9.2,-,N/A,,Clear,290,2013-05-25 15:53:00
12:53 PM,69.1,34.0,27,30.23,10.0,Variable,4.6,-,N/A,,Clear,0,2013-05-25 16:53:00
1:53 PM,71.1,32.0,24,30.20,10.0,Calm,Calm,-,N/A,,Clear,0,2013-05-25 17:53:00
2:53 PM,73.9,30.0,20,30.18,10.0,NW,11.5,-,N/A,,Clear,310,2013-05-25 18:53:00
3:53 PM,75.0,30.9,20,30.15,10.0,Variable,5.8,-,N/A,,Clear,0,2013-05-25 19:53:00
4:53 PM,77.0,34.0,21,30.14,10.0,NW,9.2,-,N/A,,Clear,320,2013-05-25 20:53:00
5:53 PM,75.9,34.0,22,30.13,10.0,West,10.4,-,N/A,,Clear,270,2013-05-25 21:53:00
6:53 PM,75.0,37.0,25,30.13,10.0,NW,5.8,-,N/A,,Clear,320,2013-05-25 22:53:00
7:53 PM,73.9,37.0,26,30.14,10.0,WNW,8.1,-,N/A,,Clear,300,2013-05-25 23:53:00
8:53 PM,66.9,44.1,44,30.14,10.0,SW,3.5,-,N/A,,Clear,230,2013-05-26 00:53:00
9:53 PM,64.9,46.0,50,30.15,10.0,Calm,Calm,-,N/A,,Clear,0,2013-05-26 01:53:00
10:53 PM,61.0,48.0,62,30.16,10.0,Calm,Calm,-,N/A,,Clear,0,2013-05-26 02:53:00
11:53 PM,57.0,48.9,74,30.16,10.0,Calm,Calm,-,N/A,,Clear,0,2013-05-26 03:53:00